Regional Weather Roundup
Issued by NWS

Home | Current Version | Previous Version | Graphics & Text | Print | Product List | Glossary On
Versions: 1 2 3 4 5 6 7 8 9 10 11 12 13 14 15 16 17 18 19 20 21 22 23 24 25 26 27 28 29 30 31 32 33 34 35 36 37 38 39 40 41 42 43 44 45 46 47 48 49 50
000
ASUS43 KOAX 252002
RWRNE

WEATHER ROUNDUP FOR NEBRASKA
NATIONAL WEATHER SERVICE OMAHA NE
300 PM CDT WED APR 25 2018

NOTES: SATELLITE DATA IS BEING USED TO AUGMENT CLOUD COVER ABOVE
       12000 FEET.
       "FAIR" INDICATES FEW OR NO CLOUDS BELOW 12,000 FEET WITH NO
       SIGNIFICANT WEATHER AND/OR OBSTRUCTIONS TO VISIBILITY.


NEZ001>004-019>022-054>056-252100-
NEBRASKA PANHANDLE

CITY           SKY/WX    TMP DP  RH WIND       PRES   REMARKS
SCOTTSBLUFF    SUNNY     63  26  24 W5        30.12F
ALLIANCE       SUNNY     61  22  22 SW16      30.13F
CHADRON          N/A     65  24  21 SW13      30.08F HAZE
GORDON         FAIR      62  31  31 SW13G18   30.10F
KIMBALL        SUNNY     60  22  23 W8        30.16F
SIDNEY         SUNNY     60  25  26 W10       30.17F
$$

NEZ057>060-069>072-079>082-252100-
SOUTHWEST NEBRASKA

CITY           SKY/WX    TMP DP  RH WIND       PRES   REMARKS
NORTH PLATTE   SUNNY     60  29  30 MISG      30.16F
IMPERIAL       SUNNY     58  30  34 SW8       30.18F
LEXINGTON      SUNNY     56  32  40 CALM      30.18F
MCCOOK         SUNNY     59  32  36 N15       30.18F
OGALLALA       SUNNY     59  31  34 W8        30.17F
$$

NEZ005>010-023>029-035>040-094-252100-
NORTH CENTRAL NEBRASKA

CITY           SKY/WX    TMP DP  RH WIND       PRES   REMARKS
VALENTINE      SUNNY     63  24  22 W12       30.12F
AINSWORTH      SUNNY     58  28  32 SW10      30.14F
BROKEN BOW     SUNNY     57  33  40 VRB5      30.16F
O`NEILL        SUNNY     60  29  30 SW3       30.16F
ORD            SUNNY     57  29  34 NE5       30.16F
THEDFORD       SUNNY     60  25  26 W3        30.16F
$$

NEZ041-046>049-061>064-073>077-083>087-252100-
SOUTH CENTRAL NEBRASKA

CITY           SKY/WX    TMP DP  RH WIND       PRES   REMARKS
GRAND ISLAND   SUNNY     56  32  40 W5        30.18F
AURORA         MOSUNNY   52  34  49 CALM      30.17F
HASTINGS       SUNNY     53  34  48 N14G20    30.19F
HEBRON         CLOUDY    51  40  66 N7        30.18F
HOLDREGE       SUNNY     54  34  47 N8        30.18F
KEARNEY        SUNNY     54  31  41 N5        30.19F
YORK             N/A     52  37  58 SE5       30.18F
$$

NEZ011>018-030>034-042>045-252100-
NORTHEAST NEBRASKA

CITY           SKY/WX    TMP DP  RH WIND       PRES   REMARKS
NORFOLK        SUNNY     56  30  37 CALM      30.13F
ALBION         SUNNY     56  31  37 NE6       30.16F
BLAIR          CLOUDY    57  36  45 NW9       30.14F
COLUMBUS       SUNNY     57  35  43 VRB5      30.16F
FREMONT        SUNNY     58  33  38 CALM      30.16F
TEKAMAH        SUNNY     61  32  33 N10G18    30.14F
WAYNE          SUNNY     57  33  39 N5        30.15F
$$

NEZ050>053-065>068-078-088>093-252100-
SOUTHEAST NEBRASKA

CITY           SKY/WX    TMP DP  RH WIND       PRES   REMARKS
LINCOLN        CLOUDY    53  35  50 CALM      30.18F
OMAHA EPPLEY   CLOUDY    58  36  43 NW7       30.14F
BEATRICE       CLOUDY    52  41  67 NE8       30.17F
FALLS CITY     CLOUDY    52  42  69 NE9       30.15F
NEBRASKA CITY  CLOUDY    49  42  75 N6        30.16F
PLATTSMOUTH    CLOUDY    52  38  59 NW6       30.16F
$$

NEZ044-045-051>053-067-252100-
OMAHA AREA

CITY           SKY/WX    TMP DP  RH WIND       PRES   REMARKS
OMAHA EPPLEY   CLOUDY    58  36  43 NW7       30.14F
BLAIR          CLOUDY    57  36  45 NW9       30.14F
FREMONT        SUNNY     58  33  38 CALM      30.16F
MILLARD        CLOUDY    56  38  51 CALM      30.15F
PLATTSMOUTH    CLOUDY    52  38  59 NW6       30.16F
WAHOO          FAIR      55  36  48 SW5       30.16F
$$



USA.gov is the U.S. government's official web portal to all federal, state and local government web resources and services.